EW2373 Weather Reports


time (UTC)temp
F
wind
direction
speed
knots
gust
knots
rain 1hr
in
rain 24hr
in
rain mn
in
humidity
%
barometer
mb
20260906104510 0 0.0 0.0 0.00 0.00 0.00 1014.6
20260906103006 0 0.0 0.0 0.00 0.00 0.00 1014.5
20260906101558 71 22 0.0 0.0 0.00 0.00 0.00 1 1014.4
20260906100100 72 56 0.0 0.0 0.00 0.00 0.00 1 1014.4
20260906094553 72 342 0.0 0.0 0.00 0.00 0.00 1 1014.4
20260906093047 72 320 0.0 0.0 0.00 0.00 0.00 1 1014.2
20260906091544 72 331 0.0 0.0 0.00 0.00 0.00 1 1014.2
20260906090039 71 58 0.0 0.0 0.00 0.00 0.00 1 1014.2
20260906084534 71 60 0.0 0.0 0.00 0.00 0.00 1 1014.1
20260906083030 71 54 0.0 0.0 0.00 0.00 0.00 1 1014.1
20260906081526 71 44 0.0 0.0 0.00 0.00 0.00 1 1013.9
20260906080022 71 5 0.0 0.0 0.00 0.00 0.00 1 1014.0
20260906074520 71 37 0.0 0.0 0.00 0.00 0.00 1 1013.9
20260906073013 71 302 0.0 0.0 0.00 0.00 0.00 1 1013.8
20260906071509 72 53 0.0 0.0 0.00 0.00 0.00 1 1013.8
20260906070014 72 322 0.0 0.0 0.00 0.00 0.00 1 1013.8
20260906064600 73 323 0.0 0.0 0.00 0.00 0.00 1 1014.0
20260906063056 73 46 0.0 0.0 0.00 0.00 0.00 1 1014.1
20260906061554 74 72 0.0 0.0 0.00 0.00 0.00 1 1014.1
20260906060047 75 50 0.0 0.0 0.00 0.00 0.00 1 1014.3
20260906054559 76 41 0.0 0.0 0.00 0.00 0.00 1 1014.3
20260906053038 76 41 0.0 0.0 0.00 0.00 0.00 1 1014.3
20260906051536 77 53 0.0 0.0 0.00 0.00 0.00 1 1014.2
20260906050035 78 53 0.0 0.0 0.00 0.00 0.00 1 1014.1
20260906044524 79 45 0.0 0.0 0.00 0.00 0.00 1 1014.0
20260906043020 79 34 0.0 0.0 0.00 0.00 0.00 1 1013.9
20260906041515 80 56 0.0 0.0 0.00 0.00 0.00 1 1013.6
20260906040011 81 58 0.0 0.0 0.00 0.00 0.00 1 1013.5
20260906034506 81 50 0.0 0.0 0.00 0.00 0.00 1 1013.4
20260906033002 82 15 0.0 0.0 0.00 0.00 0.00 1 1013.3
20260906031613 82 18 0.0 0.0 0.00 0.00 0.00 1 1013.1
20260906030054 83 57 0.0 0.0 0.00 0.00 0.00 1 1013.0
20260906024559 84 49 0.0 0.0 0.00 0.00 0.00 6 1012.7
20260906023047 84 55 0.0 0.0 0.00 0.00 0.00 12 1012.5
20260906021540 85 52 0.0 0.0 0.00 0.00 0.00 18 1012.3
20260906020036 86 44 0.0 0.0 0.00 0.00 0.00 24 1012.1
20260906014530 86 334 0.0 0.0 0.00 0.00 0.00 31 1012.1
20260906013027 87 27 0.0 0.0 0.00 0.00 0.00 35 1011.9
20260906011522 87 55 0.0 0.0 0.00 0.00 0.00 39 1011.6
20260906010038 87 330 0.0 0.0 0.00 0.00 0.00 43 1011.5
20260906004513 88 349 0.0 0.0 0.00 0.00 0.00 46 1011.4
20260906003012 0 351 0.0 0.0 0.00 0.00 0.00 1011.3
20260906001508 90 4 0.0 0.0 0.00 0.00 0.00 50 1011.4
20260906000007 91 53 0.0 0.0 0.00 0.00 0.00 50 1011.5
20260905234606 92 53 0.0 0.0 0.00 0.00 0.00 50 1011.4
20260905233057 93 358 0.0 0.0 0.00 0.00 0.00 50 1011.3
20260905231550 94 330 0.0 0.0 0.00 0.00 0.00 49 1011.1
20260905230045 94 331 0.0 0.0 0.00 0.00 0.00 49 1011.1
20260905224541 96 339 0.0 0.0 0.00 0.00 0.00 47 1010.9
20260905223036 97 42 0.0 0.0 0.00 0.00 0.00 45 1010.8
20260905221532 97 45 0.0 0.0 0.00 0.00 0.00 45 1010.9
20260905220030 98 346 0.0 0.0 0.00 0.00 0.00 44 1010.8
20260905214522 98 277 0.0 0.0 0.00 0.00 0.00 43 1010.9
20260905213018 97 325 0.0 0.0 0.00 0.00 0.00 43 1011.0
20260905211539 98 49 0.0 0.0 0.00 0.00 0.00 42 1011.0
20260905210010 97 247 0.0 0.0 0.00 0.00 0.00 41 1011.2
20260905204507 95 262 0.0 0.0 0.00 0.00 0.00 41 1011.5
20260905203003 93 288 0.0 0.0 0.00 0.00 0.00 42 1011.8
20260905201606 90 226 0.0 0.0 0.00 0.00 0.00 46 1011.9
20260905200115 88 340 0.0 0.0 0.00 0.00 0.00 51 1012.1
20260905194549 92 272 0.0 0.0 0.00 0.00 0.00 49 1012.2
20260905193045 94 323 0.0 0.0 0.00 0.00 0.00 47 1012.0
20260905191540 97 332 0.0 0.0 0.00 0.00 0.00 43 1012.0
20260905190038 99 328 0.0 0.0 0.00 0.00 0.00 41 1012.1
20260905184532 99 285 0.0 0.0 0.00 0.00 0.00 40 1012.1
20260905183032 99 293 0.0 0.0 0.00 0.00 0.00 40 1012.4
20260905181523 98 340 0.0 0.0 0.00 0.00 0.00 41 1012.4
20260905180018 98 354 0.0 0.0 0.00 0.00 0.00 41 1012.6
20260905174513 99 291 0.0 0.0 0.00 0.00 0.00 40 1012.7
20260905173022 98 246 0.0 0.0 0.00 0.00 0.00 42 1012.7
20260905171505 98 360 0.0 0.0 0.00 0.00 0.00 41 1013.0
20260905170116 98 257 0.0 0.0 0.00 0.00 0.00 41 1013.3
20260905170001 98 233 0.0 0.0 0.00 0.00 0.00 41 1013.2
20260905164556 97 250 0.0 0.0 0.00 0.00 0.00 41 1013.3
20260905163052 97 274 0.0 0.0 0.00 0.00 0.00 41 1013.4
20260905161547 96 354 0.0 0.0 0.00 0.00 0.00 40 1013.4
20260905160042 96 10 0.0 0.0 0.00 0.00 0.00 39 1013.5
20260905154537 96 108 0.0 0.0 0.00 0.00 0.00 38 1013.7
20260905153033 95 335 0.0 0.0 0.00 0.00 0.00 36 1013.7
20260905151529 94 259 0.0 0.0 0.00 0.00 0.00 35 1013.9
20260905150025 93 321 0.0 0.0 0.00 0.00 0.00 32 1013.7
20260905144520 92 312 0.0 0.0 0.00 0.00 0.00 29 1013.6
20260905143015 91 262 0.0 0.0 0.00 0.00 0.00 26 1013.7
20260905141522 91 294 0.0 0.0 0.00 0.00 0.00 20 1013.8
20260905140007 88 322 0.0 0.0 0.00 0.00 0.00 16 1014.0
20260905134501 87 245 0.0 0.0 0.00 0.00 0.00 9 1014.1
20260905133058 85 280 0.0 0.0 0.00 0.00 0.00 1 1014.0
20260905131552 83 262 0.0 0.0 0.00 0.00 0.00 1 1014.1
20260905130048 82 251 0.0 0.0 0.00 0.00 0.00 1 1014.0
20260905124543 80 224 0.0 0.0 0.00 0.00 0.00 1014.0
20260905123038 0 224 0.0 0.0 0.00 0.00 0.00 1014.0
20260905121535 0 0.0 0.0 0.00 0.00 0.00 1014.0
20260905120030 0 0.0 0.0 0.00 0.00 0.00 1013.8
20260905114525 0 0.0 0.0 0.00 0.00 0.00 1013.7
20260905113022 0 0.0 0.0 0.00 0.00 0.00 1013.6
20260905111518 0 0.0 0.0 0.00 0.00 0.00 1013.6
20260905110015 0 0.0 0.0 0.00 0.00 0.00 1013.4